Powrót do katalogu

FENGYUN 1C DEB

LostPO
NORAD 32090·DEBRIS·🇨🇳 China

Wystrzelony May 10, 1999 z Taiyuan Satellite Launch Center

Loading…

Następne Przeloty (najbliższe 24 godziny)

TLE

NieaktualneSource: Space-Track

Epoka: Mar 27, 2024, 07:19 UTC

1 32090U 99025CQG 24087.30533272  .00015134  00000-0  49990-2 0  9992
2 32090  99.0623 265.3819 0056980 278.8923  80.5814 14.37167971540063

Śledź FENGYUN 1C DEB w czasie rzeczywistym z AllMySat

Download on the App Store